Hourly Data Report for August 01, 2017

All times are specified in Local Standard Time (LST). Add 1 hour to adjust for Daylight Saving Time where and when it is observed.

ST. STEPHEN
NEW BRUNSWICK

45°12'36.600" N
67°15'10.300" W
26.10 m
8104935
71607
WSS

Download Data

Hourly Data (August 2017)
Hourly Data Report for August 1, 2017
Temp Definition
°C
Dew Point Temp Definition
°C
Rel Hum Definition
%
Wind Dir Definition
10's deg

Wind Spd Definition
km/h
Visibility Definition
km
Stn Press Definition
kPa
Hmdx Definition


Wind Chill Definition


Weather Definition


TIME
00:00 17.5 13.8 79 22 3   101.06     LegendNANA
01:00 15.8 13.2 85   0   101.02     LegendNANA
02:00 15.1 13.0 87 0 1   101.03     LegendNANA
03:00 14.6 13.1 91 0 1   101.03     LegendNANA
04:00 13.9 12.6 92   0   101.04     LegendNANA
05:00 14.2 13.4 95 29 3   101.07     LegendNANA
06:00 16.1 15.4 95 28 6   101.11     LegendNANA
07:00 18.6 16.0 85 26 5   101.15     LegendNANA
08:00 21.5 16.1 71 30 4   101.18 26   LegendNANA
09:00 23.3 15.4 61 31 8   101.21 28   LegendNANA
10:00 25.0 12.1 45 35 8   101.20 27   LegendNANA
11:00 26.1 9.7 36 31 6   101.20 27   LegendNANA
12:00 27.0 9.5 33 31 10   101.19 28   LegendNANA
13:00 27.5 9.1 31 32 9   101.19 28   LegendNANA
14:00 27.5 10.1 34 32 8   101.19 29   LegendNANA
15:00 27.8 9.8 32 34 8   101.17 29   LegendNANA
16:00 28.9 8.2 27 28 9   101.15 29   LegendNANA
17:00 28.5 9.0 29 36 9   101.14 29   LegendNANA
18:00 28.1 9.1 30 1 8   101.16 29   LegendNANA
19:00 26.8 10.4 36 3 4   101.19 28   LegendNANA
20:00 21.6 12.8 57 0 1   101.27     LegendNANA
21:00 18.1 13.6 75 0 1   101.34     LegendNANA
22:00 15.8 13.3 85 5 2   101.39     LegendNANA
23:00 14.5 12.8 90   0   101.43     LegendNANA

Notes on Data Quality.

Legend

  • E = Estimated
  • M = Missing
  • NA = Not Available
  • ‡ = Partner data that is not subject to review by the National Climate Archives
Date modified: